Asheboro, NC

7:58 PM EDT on June 22, 2017 (GMT -0400)
Asheboro Municipal

Weather History for KHBI - December, 2012

Change the Weather History Date:

Sunday, December 23, 2012

  Actual Average Record
Temperature  
Mean Temperature 38 °F -  
Max Temperature 52 °F 51 °F 72 °F (1990)
Min Temperature 23 °F 33 °F 5 °F (1989)
Degree Days  
Heating Degree Days 28    
Moisture  
Dew Point 21 °F    
Average Humidity 53    
Maximum Humidity 82    
Minimum Humidity 23    
Precipitation  
Precipitation 0.00 in - - ()
Sea Level Pressure  
Sea Level Pressure 30.11 in    
Wind  
Wind Speed 2 mph (SSW)    
Max Wind Speed 10 mph    
Max Gust Speed -    
Visibility 10 miles    
Events Rain    
Averages and records for this station are not official NWS values.
T = Trace of Precipitation, MM = Missing Value Source: NWS Daily Summary

Daily Weather History Graph

Daily Weather History Graph

Search for Another Location

Airport or City:

Trip Planner

Search our weather history database for the weather conditions in past years. The results will help you decide how hot, cold, wet, or windy it might be!

Date:

Astronomy

Dec. 23, 2012 Rise Set
Actual Time 7:26 AM EST 5:11 PM EST
Civil Twilight 6:58 AM EST 5:39 PM EST
Nautical Twilight 6:26 AM EST 6:11 PM EST
Astronomical Twilight 5:55 AM EST 6:42 PM EST
Moon 1:57 PM EST (12/23) 3:11 AM EST (12/23)
Length of Visible Light 10h 41m
Length of Day
9h 44m
Waxing Gibbous, 81% of the Moon is Illuminated
Dec 23
Waxing Gibbous
Dec 28
Full
Jan 4
Last Quarter
Jan 11
New
Jan 18
First Quarter

Hourly Weather History & Observations

Time (EST) Temp. Windchill Dew Point Humidity Pressure Visibility Wind Dir Wind Speed Gust Speed Precip Events Conditions
12:15 AM 30.0 °F - 19.0 °F 64% 30.13 in 10.0 mi Calm Calm - N/A   Clear
12:35 AM 28.9 °F - 18.3 °F 65% 30.13 in 10.0 mi Calm Calm - N/A   Clear
12:55 AM 29.1 °F - 19.8 °F 68% 30.13 in 10.0 mi Calm Calm - N/A   Clear
1:15 AM 28.2 °F - 18.5 °F 67% 30.14 in 10.0 mi Calm Calm - N/A   Clear
1:35 AM 27.9 °F - 19.0 °F 69% 30.13 in 10.0 mi Calm Calm - N/A   Clear
1:55 AM 29.1 °F - 17.8 °F 63% 30.14 in 10.0 mi Calm Calm - N/A   Clear
2:15 AM 27.9 °F - 18.5 °F 68% 30.14 in 10.0 mi Calm Calm - N/A   Clear
2:35 AM 28.0 °F - 17.2 °F 64% 30.14 in 10.0 mi Calm Calm - N/A   Clear
2:55 AM 27.5 °F - 18.7 °F 69% 30.14 in 10.0 mi Calm Calm - N/A   Clear
3:15 AM 27.5 °F - 16.9 °F 64% 30.14 in 10.0 mi Calm Calm - N/A   Clear
3:35 AM 27.0 °F - 18.3 °F 70% 30.14 in 10.0 mi Calm Calm - N/A   Clear
3:55 AM 26.4 °F - 17.6 °F 69% 30.15 in 10.0 mi Calm Calm - N/A   Clear
4:15 AM 25.7 °F - 17.6 °F 71% 30.15 in 10.0 mi Calm Calm - N/A   Clear
4:35 AM 25.3 °F - 17.4 °F 72% 30.14 in 10.0 mi Calm Calm - N/A   Clear
4:55 AM 25.7 °F - 18.3 °F 74% 30.14 in 10.0 mi Calm Calm - N/A   Clear
5:15 AM 25.7 °F - 17.2 °F 70% 30.14 in 10.0 mi Calm Calm - N/A   Clear
5:35 AM 23.9 °F - 19.0 °F 82% 30.14 in 10.0 mi Calm Calm - N/A   Clear
5:55 AM 24.1 °F - 18.3 °F 79% 30.15 in 10.0 mi Calm Calm - N/A   Clear
6:15 AM 23.4 °F - 17.8 °F 79% 30.16 in 10.0 mi Calm Calm - N/A   Clear
6:35 AM 23.9 °F - 17.6 °F 77% 30.16 in 10.0 mi Calm Calm - N/A   Clear
6:55 AM 23.4 °F - 18.0 °F 80% 30.16 in 10.0 mi Calm Calm - N/A   Clear
7:15 AM 23.9 °F - 16.9 °F 75% 30.16 in 10.0 mi Calm Calm - N/A   Clear
7:35 AM 24.6 °F - 17.6 °F 75% 30.17 in 10.0 mi Calm Calm - N/A   Clear
7:55 AM 24.8 °F - 17.8 °F 75% 30.16 in 10.0 mi Calm Calm - N/A   Clear
8:15 AM 24.6 °F - 19.2 °F 80% 30.16 in 10.0 mi Calm Calm - N/A   Clear
8:35 AM 27.0 °F - 21.0 °F 78% 30.17 in 10.0 mi Calm Calm - N/A   Clear
8:55 AM 28.8 °F - 21.2 °F 73% 30.16 in 10.0 mi Calm Calm - N/A   Clear
9:15 AM 31.1 °F - 21.9 °F 69% 30.16 in 10.0 mi Calm Calm - N/A   Clear
9:35 AM 32.7 °F - 21.9 °F 64% 30.16 in 10.0 mi Calm Calm - N/A   Clear
9:55 AM 34.7 °F - 23.7 °F 64% 30.17 in 10.0 mi Calm Calm - N/A   Clear
10:15 AM 37.2 °F 34.7 °F 21.0 °F 52% 30.17 in 10.0 mi SSW 3.5 mph - N/A   Clear
10:35 AM 40.1 °F 36.9 °F 16.5 °F 39% 30.16 in 10.0 mi SW 4.6 mph - N/A   Clear
10:55 AM 41.4 °F 38.4 °F 16.3 °F 36% 30.15 in 10.0 mi SSW 4.6 mph - N/A   Clear
11:15 AM 42.4 °F 38.8 °F 15.6 °F 34% 30.14 in 10.0 mi SW 5.8 mph - N/A   Clear
11:35 AM 43.5 °F 40.9 °F 15.3 °F 32% 30.13 in 10.0 mi SW 4.6 mph - N/A   Clear
11:55 AM 44.2 °F 41.8 °F 15.4 °F 31% 30.12 in 10.0 mi SW 4.6 mph - N/A   Clear
12:15 PM 45.7 °F 42.7 °F 15.4 °F 30% 30.11 in 10.0 mi SW 5.8 mph - N/A   Clear
12:35 PM 47.3 °F - 12.7 °F 25% 30.11 in 10.0 mi SW 8.1 mph - N/A   Clear
12:55 PM 47.3 °F - 15.3 °F 28% 30.10 in 10.0 mi SSW 8.1 mph - N/A   Clear
1:15 PM 48.4 °F - 15.1 °F 26% 30.09 in 10.0 mi SW 6.9 mph - N/A   Clear
1:35 PM 49.5 °F - 14.7 °F 25% 30.08 in 10.0 mi SW 6.9 mph - N/A   Clear
1:55 PM 50.9 °F - 14.9 °F 24% 30.07 in 10.0 mi SW 6.9 mph - N/A   Clear
2:15 PM 51.4 °F - 14.9 °F 23% 30.06 in 10.0 mi South 6.9 mph - N/A   Clear
2:35 PM 51.8 °F - 15.8 °F 24% 30.06 in 10.0 mi SSW 9.2 mph - N/A   Clear
2:55 PM 51.8 °F - 16.2 °F 24% 30.06 in 10.0 mi SSW 9.2 mph - N/A   Clear
3:15 PM 52.0 °F - 16.5 °F 25% 30.06 in 10.0 mi SSW 10.4 mph - N/A   Clear
3:35 PM 52.2 °F - 17.4 °F 25% 30.06 in 10.0 mi SSW 5.8 mph - N/A   Clear
3:55 PM 52.0 °F - 18.0 °F 26% 30.05 in 10.0 mi South 8.1 mph - N/A   Clear
4:15 PM 51.8 °F - 18.1 °F 27% 30.06 in 10.0 mi SW 6.9 mph - N/A   Clear
4:35 PM 51.1 °F - 18.5 °F 28% 30.05 in 10.0 mi South 4.6 mph - N/A   Clear
4:55 PM 50.0 °F - 19.2 °F 30% 30.06 in 10.0 mi South 4.6 mph - N/A   Clear
5:15 PM 49.3 °F - 18.5 °F 30% 30.04 in 10.0 mi South 6.9 mph - N/A   Clear
5:35 PM 46.9 °F - 19.6 °F 34% 30.07 in 10.0 mi Calm Calm - N/A   Clear
5:55 PM 45.9 °F 42.9 °F 21.0 °F 37% 30.05 in 10.0 mi SSE 5.8 mph - N/A   Clear
6:15 PM 46.9 °F - 21.0 °F 36% 30.06 in 10.0 mi South 3.5 mph - N/A   Clear
6:35 PM 43.0 °F - 27.0 °F 53% 30.06 in 10.0 mi Calm Calm - N/A   Clear
6:55 PM 43.7 °F - 24.1 °F 46% 30.06 in 10.0 mi Calm Calm - N/A   Clear
7:15 PM 43.7 °F 42.1 °F 24.6 °F 47% 30.06 in 10.0 mi South 3.5 mph - N/A   Clear
7:35 PM 43.3 °F - 24.4 °F 47% 30.07 in 10.0 mi Calm Calm - N/A   Scattered Clouds
7:55 PM 42.1 °F - 28.9 °F 60% 30.07 in 10.0 mi Calm Calm - N/A   Mostly Cloudy
8:15 PM 42.8 °F - 28.9 °F 58% 30.06 in 10.0 mi Calm Calm - N/A   Overcast
8:35 PM 42.3 °F - 32.4 °F 68% 30.07 in 10.0 mi Calm Calm - N/A Rain Light Rain
8:55 PM 41.4 °F 38.4 °F 34.5 °F 77% 30.06 in 10.0 mi South 4.6 mph - N/A Rain Light Rain
9:15 PM 44.8 °F 41.0 °F 32.5 °F 62% 30.06 in 10.0 mi SSW 6.9 mph - N/A   Overcast
9:55 PM 47.7 °F - 31.5 °F 53% 30.06 in 10.0 mi SSW 6.9 mph - N/A   Overcast
10:15 PM 48.6 °F - 29.7 °F 48% 30.07 in 10.0 mi SSW 8.1 mph - N/A   Overcast
10:35 PM 48.2 °F - 30.7 °F 51% 30.07 in 10.0 mi SW 8.1 mph - N/A Rain Light Rain
10:55 PM 47.5 °F - 32.4 °F 56% 30.07 in 10.0 mi SSW 6.9 mph - N/A Rain Light Rain
11:15 PM 47.1 °F - 33.1 °F 58% 30.07 in 10.0 mi SSW 5.8 mph - N/A Rain Light Rain
11:35 PM 46.6 °F - 34.0 °F 62% 30.06 in 10.0 mi South 4.6 mph - N/A   Overcast
11:55 PM 46.8 °F - 34.3 °F 62% 30.06 in 10.0 mi SSW 4.6 mph - N/A Rain Light Rain